Volver al catálogo

STARLINK-5674

ActivoComunicacionesVLEO
NORAD 55465·PAYLOAD·🇺🇸 United States

Lanzado Feb 2, 2023 desde Cape Canaveral Space Force Station

Loading…

Próximos Pases (próximas 24 horas)

TLE

ActualizadoSource: CelesTrak SupGP

Época: Sep 14, 2026, 22:07 UTC

1 55465C 23015S   26257.92201389 -.00024869  00000+0 -90043-3 0  2578
2 55465  43.0013 339.8800 0001604 271.5593 120.8467 15.27601606    15

Sigue STARLINK-5674 en tiempo real con AllMySat

Download on the App Store